[[{"header":{"parameterUnit":"m.s-1","parameterCategory":1,"la1":30.2992,"la2":30.254,"lo1":-89.0895,"lo2":-89.0443,"dy":0.0025,"dx":0.0025,"nx":19,"ny":19,"refTime":"2026-04-27T21:00:00:Z","depth":0,"parameterNumber":2,"parameterNumberName":"U-component_of_WINDS"},"data":[0,0,0,1.2908,1.2911,1.3073,1.3074,1.3276,1.3277,0,0,0,0,0,0,0,0,0,0,0,1.2856,1.2857,1.2908,1.2912,1.3073,1.3074,1.3275,1.3277,0,0,0,0,0,0,0,0,0,0,0,1.2855,1.2857,1.2858,1.2912,1.3073,1.3074,1.3275,1.3155,0,0,0,0,0,0,0,0,0,0,1.2999,1.2946,1.2856,1.2858,1.2913,1.3073,1.3074,1.3149,1.3162,1.32,0,1.3231,0,1.3257,1.329,1.3291,0,0,0,1.2915,1.2935,1.2983,1.2859,1.2914,1.3073,1.3001,1.3157,1.3172,1.3217,1.3234,1.3242,1.3261,1.3292,1.3293,1.3495,1.3495,0,0,1.2906,1.2883,1.2972,1.2992,1.2966,1.2996,1.3006,1.3166,1.3183,1.3235,1.3247,1.3264,1.3293,1.3295,1.3494,1.3495,0,0,0,1.2878,1.2877,1.292,1.2984,1.3013,1.3001,1.3012,1.3176,1.3192,1.3249,1.3266,1.3294,1.3297,1.3493,1.3494,1.3511,0,0,0,1.2873,1.286,1.2916,1.2904,1.301,1.3097,1.3019,1.3181,1.32,1.3265,1.3294,1.3298,1.3492,1.3494,1.3508,1.3523,0,0,0,1.2847,1.2857,1.2879,1.2902,1.2971,1.3094,1.312,1.3186,1.321,1.3291,1.3299,1.3492,1.3493,1.3506,1.352,1.3569,0,0,0,1.2813,1.2893,1.2879,1.2975,1.2969,1.3103,1.3119,1.322,1.3291,1.3295,1.3492,1.3494,1.3506,1.3518,1.3567,1.3607,1.3621,0,0,1.2901,1.2902,1.2961,1.2954,1.3084,1.308,1.3213,1.3301,1.333,1.3438,1.3443,1.3509,1.3519,1.3569,1.3709,1.3721,0,0,0,1.2981,1.3023,1.3062,1.3129,1.3196,1.3256,1.3325,1.3357,1.345,1.338,1.3541,1.3548,1.3578,1.3598,1.3608,1.3635,1.3502,1.3502,1.3502,1.3074,1.3106,1.3204,1.3255,1.332,1.339,1.3445,1.35,1.3514,1.3552,1.3584,1.3666,1.3688,1.3696,1.3724,1.3608,1.3608,1.3608,1.3608,1.3206,1.327,1.3286,1.3387,1.342,1.3506,1.3576,1.3583,1.3668,1.3644,1.3672,1.3643,1.3707,1.3733,1.3609,1.3609,1.3609,1.3609,1.3609,1.3271,1.3307,1.3344,1.3443,1.3516,1.3565,1.3645,1.3673,1.3699,1.3727,1.3764,1.3764,1.3767,1.3742,1.3743,1.3743,1.3743,1.3743,1.3743,1.3323,1.3365,1.3429,1.3507,1.3553,1.3617,1.3687,1.3733,1.3791,1.3805,1.3805,1.3815,1.3707,1.3679,1.3748,1.3747,1.3747,1.3746,1.3746,1.3446,1.3422,1.3521,1.3567,1.3661,1.3731,1.3764,1.3856,1.3898,1.3937,1.3941,1.3856,1.386,1.3853,1.383,1.3933,1.3933,1.3933,1.3933,1.35,1.3505,1.3612,1.3683,1.3756,1.3796,1.3907,1.3962,1.4016,1.4044,1.4033,1.4005,1.3996,1.4005,1.3995,1.3974,1.4112,1.4112,1.4112,1.3578,1.359,1.3679,1.373,1.3806,1.3869,1.3974,1.4056,1.4112,1.412,1.4066,1.4059,1.4014,1.3998,1.4005,1.3988,1.395,0,0]},{"header":{"parameterUnit":"m.s-1","parameterCategory":1,"la1":30.2992,"la2":30.254,"lo1":-89.0895,"lo2":-89.0443,"dy":0.0025,"dx":0.0025,"nx":19,"ny":19,"refTime":"2026-04-27T21:00:00:Z","depth":0,"parameterNumber":3,"parameterNumberName":"V-component_of_WINDS"},"data":[0,0,0,4.7491,4.7494,4.7636,4.7637,4.7814,4.7816,0,0,0,0,0,0,0,0,0,0,0,4.745,4.7452,4.7491,4.7494,4.7636,4.7637,4.7814,4.7816,0,0,0,0,0,0,0,0,0,0,0,4.745,4.7451,4.7453,4.7495,4.7636,4.7637,4.7814,4.7707,0,0,0,0,0,0,0,0,0,0,4.7569,4.7534,4.7451,4.7453,4.7496,4.7636,4.7637,4.7702,4.7714,4.7749,0,4.7785,0,4.7803,4.7828,4.7828,0,0,0,4.7492,4.7524,4.7562,4.7453,4.7497,4.7636,4.7572,4.7708,4.7722,4.7765,4.7787,4.7794,4.7806,4.7829,4.783,4.8052,4.8053,0,0,4.7484,4.7476,4.7553,4.7571,4.7553,4.7567,4.7576,4.7716,4.7739,4.7788,4.7798,4.7809,4.783,4.7831,4.8051,4.8052,0,0,0,4.7463,4.747,4.7504,4.7563,4.7589,4.7571,4.7582,4.7733,4.7745,4.78,4.7811,4.7831,4.7833,4.805,4.8051,4.8101,0,0,0,4.7459,4.7458,4.7501,4.7497,4.7587,4.7664,4.7594,4.7735,4.7751,4.7811,4.7831,4.7835,4.8048,4.8051,4.8097,4.8126,0,0,0,4.744,4.7456,4.7477,4.7496,4.7557,4.7662,4.7682,4.7739,4.7758,4.7829,4.7836,4.8048,4.805,4.8094,4.812,4.8183,0,0,0,4.7417,4.7517,4.7478,4.7593,4.7556,4.7692,4.7681,4.7782,4.7848,4.7832,4.8049,4.8051,4.8092,4.8116,4.8179,4.8236,4.8258,0,0,4.7538,4.7531,4.7599,4.7569,4.771,4.7671,4.7818,4.7885,4.7898,4.7999,4.8004,4.8098,4.812,4.8182,4.8385,4.8403,0,0,0,4.7634,4.7684,4.7723,4.7788,4.7844,4.7893,4.7939,4.7964,4.8051,4.7949,4.8138,4.8151,4.8188,4.8215,4.823,4.8263,4.8063,4.8063,4.8063,4.7792,4.7806,4.792,4.7951,4.8013,4.806,4.8111,4.8152,4.8145,4.8189,4.8219,4.8342,4.8373,4.8385,4.8419,4.8249,4.8249,4.8249,4.825,4.797,4.8043,4.8033,4.8141,4.8154,4.8243,4.8291,4.8283,4.8366,4.8319,4.8353,4.8302,4.8404,4.8434,4.8253,4.8253,4.8252,4.8252,4.8252,4.8076,4.8113,4.8144,4.824,4.831,4.8336,4.8417,4.8424,4.8431,4.8464,4.8497,4.8496,4.8497,4.8479,4.848,4.848,4.848,4.8481,4.8481,4.8175,4.8207,4.8277,4.8346,4.8388,4.8445,4.8493,4.8533,4.858,4.8578,4.8579,4.8567,4.8412,4.8373,4.8488,4.8486,4.8486,4.8485,4.8485,4.8353,4.8314,4.8422,4.8465,4.8546,4.8616,4.8624,4.8706,4.8741,4.878,4.8762,4.8645,4.8638,4.8626,4.8594,4.8758,4.8758,4.8758,4.8758,4.8443,4.8441,4.8554,4.8622,4.8689,4.8708,4.8826,4.8863,4.8895,4.8916,4.8893,4.8851,4.8838,4.8838,4.8821,4.8792,4.9003,4.9003,4.9004,4.8554,4.8559,4.8661,4.8695,4.8758,4.8811,4.8923,4.8998,4.9025,4.9014,4.8933,4.8923,4.8855,4.8832,4.882,4.8794,4.874,0,0]}]]